When you browse on this site, cookies collect data to enhance your experience and personalize the content and advertising you see.
Visit our Privacy Policy to learn more. By continuing to use the site, you agree to this use of cookies and data.
  • In France
  • List of Countries
  • For 7 days
  • Water Temperature
  • Satellite Maps
  • Weather Map
  • Weather Widgets
  • user-avatar
    Login

    Hourly Weather Strukovo

    Today, 23 April, Tuesday

    Time Temperature Precipitation Wind Pressure Humidity
    00:00 +10°C° 0 mm 1 mps 755 mmHg 53%
    01:00 +10°C° 0 mm 1 mps 756 mmHg 54%
    02:00 +8°C° 0 mm 0 mps 755 mmHg 54%
    03:00 +8°C° 0 mm 0 mps 755 mmHg 55%
    04:00 +8°C° 0 mm 0 mps 756 mmHg 56%
    05:00 +9°C° 0 mm 1 mps 756 mmHg 58%
    06:00 +11°C° 0 mm 1 mps 756 mmHg 53%
    07:00 +13°C° 0 mm 1 mps 756 mmHg 49%
    08:00 +15°C° 0 mm 1 mps 756 mmHg 45%
    09:00 +16°C° 0 mm 1 mps 756 mmHg 41%
    10:00 +18°C° 0 mm 2 mps 756 mmHg 37%
    11:00 +19°C° 0 mm 2 mps 756 mmHg 33%
    12:00 +19°C° 0 mm 2 mps 756 mmHg 33%
    13:00 +19°C° 0 mm 2 mps 756 mmHg 33%
    14:00 +20°C° 0 mm 2 mps 756 mmHg 33%
    15:00 +19°C° 0 mm 2 mps 755 mmHg 36%
    16:00 +19°C° 0 mm 2 mps 755 mmHg 39%
    17:00 +20°C° 0 mm 1 mps 755 mmHg 42%
    18:00 +18°C° 0 mm 1 mps 755 mmHg 46%
    19:00 +15°C° 0 mm 1 mps 755 mmHg 50%
    20:00 +14°C° 0 mm 2 mps 755 mmHg 53%
    21:00 +13°C° 0 mm 2 mps 755 mmHg 56%
    22:00 +12°C° 0 mm 2 mps 755 mmHg 58%
    23:00 +12°C° 0 mm 2 mps 756 mmHg 60%

    Tomorrow, 24 April, Wednesday

    Time Temperature Precipitation Wind Pressure Humidity
    00:00 +12°C° 0 mm 2 mps 756 mmHg 60%
    01:00 +12°C° 0 mm 2 mps 756 mmHg 61%
    02:00 +12°C° 0 mm 2 mps 756 mmHg 62%
    03:00 +12°C° 0 mm 2 mps 756 mmHg 64%
    04:00 +10°C° 0 mm 2 mps 756 mmHg 67%
    05:00 +10°C° 0 mm 2 mps 756 mmHg 70%
    06:00 +13°C° 0 mm 2 mps 756 mmHg 64%
    07:00 +14°C° 0 mm 2 mps 756 mmHg 59%
    08:00 +16°C° 0 mm 2 mps 756 mmHg 54%
    09:00 +18°C° 0 mm 3 mps 756 mmHg 49%
    10:00 +19°C° 0 mm 3 mps 756 mmHg 43%
    11:00 +20°C° 0 mm 3 mps 756 mmHg 38%
    12:00 +21°C° 0 mm 3 mps 756 mmHg 37%
    13:00 +21°C° 0 mm 3 mps 756 mmHg 37%
    14:00 +22°C° 0 mm 3 mps 756 mmHg 36%
    15:00 +21°C° 0 mm 3 mps 755 mmHg 39%
    16:00 +21°C° 0 mm 2 mps 755 mmHg 42%
    17:00 +21°C° 0 mm 2 mps 755 mmHg 45%
    18:00 +19°C° 0 mm 2 mps 755 mmHg 48%
    19:00 +17°C° 0 mm 2 mps 755 mmHg 52%
    20:00 +15°C° 0 mm 1 mps 755 mmHg 56%
    21:00 +15°C° 0 mm 1 mps 755 mmHg 58%
    22:00 +14°C° 0 mm 1 mps 755 mmHg 60%
    23:00 +14°C° 0 mm 1 mps 755 mmHg 62%

    Day after tomorrow, 25 April, Thursday

    Time Temperature Precipitation Wind Pressure Humidity
    00:00 +13°C° 0 mm 1 mps 755 mmHg 63%
    01:00 +13°C° 0 mm 1 mps 755 mmHg 64%
    02:00 +12°C° 0 mm 1 mps 756 mmHg 66%
    03:00 +12°C° 0 mm 1 mps 756 mmHg 67%
    04:00 +12°C° 0 mm 1 mps 756 mmHg 69%
    05:00 +11°C° 0 mm 1 mps 756 mmHg 70%
    06:00 +13°C° 0 mm 1 mps 756 mmHg 64%
    07:00 +15°C° 0 mm 1 mps 756 mmHg 58%
    08:00 +18°C° 0 mm 1 mps 756 mmHg 52%
    09:00 +19°C° 0 mm 2 mps 756 mmHg 47%
    10:00 +20°C° 0 mm 2 mps 756 mmHg 43%
    11:00 +23°C° 0 mm 2 mps 756 mmHg 38%
    12:00 +23°C° 0 mm 2 mps 755 mmHg 37%
    13:00 +24°C° 0 mm 1 mps 755 mmHg 36%
    14:00 +24°C° 0 mm 1 mps 755 mmHg 34%
    15:00 +24°C° 0 mm 1 mps 755 mmHg 37%
    16:00 +24°C° 0 mm 1 mps 754 mmHg 39%
    17:00 +23°C° 0 mm 1 mps 754 mmHg 41%
    18:00 +22°C° 0 mm 1 mps 754 mmHg 45%
    19:00 +20°C° 0 mm 1 mps 754 mmHg 48%
    20:00 +18°C° 0 mm 1 mps 754 mmHg 52%
    21:00 +16°C° 0.1 mm 0 mps 754 mmHg 54%
    22:00 +16°C° 0.1 mm 0 mps 754 mmHg 56%
    23:00 +15°C° 0.1 mm 0 mps 754 mmHg 58%

    26 April, Friday

    Time Temperature Precipitation Wind Pressure Humidity
    00:00 +15°C° 0.5 mm 0 mps 754 mmHg 63%
    01:00 +14°C° 0.5 mm 0 mps 754 mmHg 68%
    02:00 +13°C° 0.5 mm 0 mps 754 mmHg 73%
    03:00 +14°C° 0.5 mm 1 mps 754 mmHg 75%
    04:00 +13°C° 0.5 mm 1 mps 754 mmHg 77%
    05:00 +13°C° 0.5 mm 1 mps 754 mmHg 80%
    06:00 +15°C° 0.3 mm 1 mps 754 mmHg 75%
    07:00 +16°C° 0.3 mm 1 mps 754 mmHg 71%
    08:00 +19°C° 0.3 mm 1 mps 754 mmHg 66%
    09:00 +18°C° 0.1 mm 2 mps 754 mmHg 62%
    10:00 +19°C° 0.1 mm 2 mps 753 mmHg 58%
    11:00 +20°C° 0.1 mm 2 mps 753 mmHg 54%
    12:00 +21°C° 0.5 mm 2 mps 753 mmHg 51%
    13:00 +23°C° 0.5 mm 2 mps 753 mmHg 48%
    14:00 +23°C° 0.5 mm 2 mps 753 mmHg 46%
    15:00 +21°C° 0.7 mm 2 mps 752 mmHg 50%
    16:00 +21°C° 0.7 mm 2 mps 752 mmHg 55%
    17:00 +20°C° 0.7 mm 2 mps 752 mmHg 60%
    18:00 +19°C° 0.2 mm 1 mps 751 mmHg 63%
    19:00 +18°C° 0.2 mm 1 mps 751 mmHg 67%
    20:00 +14°C° 0.2 mm 0 mps 751 mmHg 71%
    21:00 +14°C° 0 mm 0 mps 751 mmHg 72%
    22:00 +13°C° 0 mm 0 mps 751 mmHg 72%
    23:00 +13°C° 0 mm 0 mps 751 mmHg 73%

    27 April, Saturday

    Time Temperature Precipitation Wind Pressure Humidity
    00:00 +14°C° 0 mm 1 mps 751 mmHg 73%
    01:00 +15°C° 0 mm 1 mps 751 mmHg 72%
    02:00 +15°C° 0 mm 1 mps 750 mmHg 72%
    03:00 +14°C° 0 mm 2 mps 750 mmHg 75%
    04:00 +14°C° 0 mm 2 mps 750 mmHg 77%
    05:00 +13°C° 0 mm 2 mps 750 mmHg 80%
    06:00 +15°C° 0 mm 2 mps 750 mmHg 75%
    07:00 +16°C° 0 mm 3 mps 749 mmHg 71%
    08:00 +18°C° 0 mm 3 mps 749 mmHg 66%
    09:00 +19°C° 0 mm 3 mps 749 mmHg 60%
    10:00 +20°C° 0 mm 4 mps 749 mmHg 53%
    11:00 +22°C° 0 mm 5 mps 748 mmHg 47%
    12:00 +22°C° 0 mm 5 mps 748 mmHg 46%
    13:00 +22°C° 0 mm 5 mps 747 mmHg 45%
    14:00 +22°C° 0 mm 5 mps 747 mmHg 45%
    15:00 +21°C° 0 mm 5 mps 747 mmHg 50%
    16:00 +20°C° 0 mm 4 mps 746 mmHg 55%
    17:00 +19°C° 0 mm 3 mps 746 mmHg 60%
    18:00 +18°C° 0 mm 3 mps 746 mmHg 64%
    19:00 +17°C° 0 mm 3 mps 746 mmHg 69%
    20:00 +14°C° 0 mm 3 mps 746 mmHg 73%
    21:00 +14°C° 0.1 mm 3 mps 745 mmHg 74%
    22:00 +13°C° 0.1 mm 3 mps 745 mmHg 76%
    23:00 +13°C° 0.1 mm 3 mps 745 mmHg 78%

    28 April, Sunday

    Time Temperature Precipitation Wind Pressure Humidity
    00:00 +13°C° 0.5 mm 4 mps 745 mmHg 80%
    01:00 +13°C° 0.5 mm 4 mps 744 mmHg 83%
    02:00 +13°C° 0.5 mm 5 mps 744 mmHg 85%
    03:00 +13°C° 0.4 mm 4 mps 744 mmHg 86%
    04:00 +13°C° 0.4 mm 4 mps 743 mmHg 88%
    05:00 +13°C° 0.4 mm 3 mps 743 mmHg 89%
    06:00 +13°C° 0.4 mm 3 mps 743 mmHg 86%
    07:00 +13°C° 0.4 mm 4 mps 743 mmHg 83%
    08:00 +14°C° 0.4 mm 4 mps 743 mmHg 80%
    09:00 +17°C° 0.1 mm 4 mps 743 mmHg 74%
    10:00 +18°C° 0.1 mm 4 mps 743 mmHg 69%
    11:00 +20°C° 0.1 mm 5 mps 743 mmHg 63%
    12:00 +21°C° 0 mm 5 mps 743 mmHg 59%
    13:00 +21°C° 0 mm 5 mps 742 mmHg 55%
    14:00 +22°C° 0 mm 5 mps 742 mmHg 51%
    15:00 +22°C° 0.2 mm 4 mps 742 mmHg 55%
    16:00 +21°C° 0.2 mm 3 mps 742 mmHg 60%
    17:00 +21°C° 0.2 mm 2 mps 742 mmHg 64%
    18:00 +19°C° 0.4 mm 2 mps 742 mmHg 70%
    19:00 +18°C° 0.4 mm 2 mps 742 mmHg 76%
    20:00 +16°C° 0.4 mm 1 mps 742 mmHg 82%
    21:00 +16°C° 0.3 mm 1 mps 742 mmHg 83%
    22:00 +15°C° 0.3 mm 1 mps 742 mmHg 84%
    23:00 +15°C° 0.3 mm 2 mps 742 mmHg 84%
    Show more